Cloud_Cover
100 100 100 100 100 100 100 100 100 100 100 100 100 100 100 100 100 100 100 100 100 100 100 100 100 100 100 100 100 100 100 100 100 100 100 89 56 5 72 20 5 5 53 4
100 100 100 100 100 100 98 100 98 100 100 100 100 100 100 100 100 100 100 100 100 100 100 100 100 100 100 100 100 100 100 100 100 100 100 74 13 17 33 9 5 5 5 5
100 100 100 100 100 100 100 100 98 100 100 100 100 100 100 100 100 100 100 100 100 100 100 100 100 100 100 100 100 100 100 100 100 100 100 70 79 95 100 100 22 98 19 34
100 100 100 100 100 100 100 100 98 85 94 100 48 100 100 100 100 100 100 100 100 100 100 100 100 100 100 100 100 100 100 100 100 100 100 100 68 27 9 5 81 100 29 5
100 100 100 100 100 100 100 100 100 100 14 1 100 80 42 95 100 100 100 100 100 100 100 100 100 100 100 100 100 100 100 100 100 100 99 100 100 20 13 100 28 22 42 6
100 100 100 100 100 100 100 100 94 40 61 30 94 100 5 2 74 100 100 100 100 100 100 100 100 100 100 100 100 100 100 100 100 100 99 100 10 80 36 34 15 7 5 5
100 100 100 100 100 94 99 100 81 100 55 100 56 22 5 5 5 39 100 100 100 100 100 100 100 100 100 100 100 100 100 100 100 100 99 78 52 55 100 100 100 8 5 5
100 100 100 100 100 100 77 100 100 100 80 51 84 12 5 5 5 5 5 57 81 100 100 100 100 100 100 100 100 100 100 100 100 100 100 100 90 100 100 100 86 82 78 67
5 100 100 100 100 100 100 85 100 100 80 19 89 100 5 5 99 58 6 50 100 100 100 100 100 100 100 100 100 100 100 100 100 100 100 100 100 100 100 100 80 96 98 37
5 11 100 100 100 100 86 97 87 100 100 52 95 100 77 15 32 77 41 84 100 100 100 100 100 100 100 100 100 100 100 100 100 100 100 100 100 100 100 37 72 19 10 20
5 36 66 100 100 59 95 98 100 73 100 20 16 100 100 100 100 91 84 100 100 100 100 100 100 100 100 100 100 100 100 100 100 100 100 100 100 96 12 20 5 5 15 89
91 5 93 100 100 62 99 100 30 92 100 56 100 100 100 100 100 100 91 8 41 94 100 100 100 100 100 100 100 100 93 94 100 97 96 27 33 5 15 16 79 36 100 100
100 56 20 100 100 100 100 100 100 100 100 98 94 100 100 100 100 100 100 93 76 100 100 100 100 100 100 100 100 98 42 5 12 89 92 91 10 43 84 29 49 100 100 99
71 100 6 52 100 100 100 100 100 100 39 94 100 100 100 100 100 100 100 100 100 100 97 100 100 100 100 88 89 84 18 23 91 100 100 65 21 100 69 100 100 100 100 100
100 80 18 6 100 100 100 100 100 100 100 100 100 100 100 100 100 100 100 100 100 100 100 100 100 97 99 100 100 94 72 100 63 95 6 98 100 91 98 100 100 100 100 92
100 98 5 75 100 100 100 100 100 100 100 100 100 100 100 100 100 100 100 100 100 100 100 100 100 100 100 100 100 100 100 100 27 91 100 100 88 98 92 97 100 83 100 100
100 70 9 63 99 36 100 100 100 100 100 100 100 100 100 100 100 100 100 100 100 100 100 100 100 100 100 100 100 100 100 100 100 96 71 100 100 100 100 87 88 82 54 8
54 31 5 99 47 100 100 100 100 100 100 100 100 100 100 100 100 100 100 100 100 100 100 100 100 93 92 100 100 100 100 89 70 59 79 58 99 76 87 88 25 24 5 5
95 7 91 79 100 100 100 100 100 100 100 100 100 100 100 100 100 100 100 100 100 100 100 100 35 92 100 100 100 88 78 98 86 7 51 44 68 99 28 25 5 5 5 5
5 82 92 100 100 100 92 100 100 100 100 99 100 100 100 100 100 100 100 100 100 100 100 100 100 100 90 48 99 100 100 100 100 92 87 100 92 6 5 5 5 5 5 5
37 100 100 100 100 99 100 100 100 91 95 100 100 100 100 100 100 100 100 100 100 99 99 73 53 99 100 99 89 100 93 91 91 100 70 9 3 5 5 5 5 5 5 5
76 90 100 100 100 100 100 100 97 100 100 100 100 100 100 100 100 97 100 94 63 76 77 88 100 97 97 85 71 63 50 75 14 5 5 4 5 5 5 5 5 5 5 5
71 100 100 100 100 88 90 99 100 100 100 100 100 100 100 100 92 90 95 84 70 100 100 100 70 99 90 89 67 41 6 12 11 46 54 32 9 5 5 5 5 5 5 15
100 93 86 93 98 100 100 100 100 100 100 100 100 100 100 100 100 97 100 100 100 100 100 97 100 92 18 47 6 5 17 44 40 7 5 5 5 5 6 5 5 5 40 92
100 100 100 100 100 100 100 100 100 100 100 100 100 100 100 100 100 100 100 100 100 100 100 93 58 87 24 5 5 5 5 5 5 5 5 5 5 5 71 33 5 5 46 15
100 100 100 100 100 100 100 97 96 100 100 100 100 100 100 100 100 98 100 100 95 94 88 96 95 30 5 5 5 5 5 5 5 5 5 5 5 5 39 46 5 5 5 50
100 100 100 100 100 100 100 100 100 100 100 100 100 100 100 100 100 100 96 62 100 100 100 84 15 5 5 5 5 5 5 5 5 5 5 56 56 55 64 94 100 50 25 24